Flag for Canada Weather past 2 weeks in Victoria, British Columbia, Canada

Now
63 °F

Passing clouds.


Feels Like: 63 °F
Forecast: 57 / 68 °F
Wind: 7 mph from Southeast

Location: Victoria Int. Airportb. C.

Current Time: Aug 4, 2015 at 11:28:20 AM

Latest Report: Aug 4, 2015 at 11:00 AM


Visibility: 30 mi

Pressure: 29.99 "Hg

Humidity: 68%

Dew point: 52 °F

Location of VictoriaLocation

Historic Weather in Victoria — Graph

°F

Victoria temperature yesterday

Maximum temperature yesterday: 75 °F (at 4:00 PM)
Minimum temperature yesterday: 55 °F (at 3:00 AM)
Average temperature yesterday: 65 °F

Past Weeks' High & Low Weather Summary

 TemperatureHumidityPressure
High84 °F (Jul 30, 3:00 PM)94% (Jul 24, 8:00 AM)30.28 "Hg (Jul 24, 8:00 AM)
Low52 °F (Jul 27, 6:00 AM)29% (Jul 30, 3:00 PM)29.85 "Hg (Jul 22, 8:00 PM)
Average65 °F66%30.02 "Hg
* Reported Jul 20 10:00 AM — Aug 4 10:00 AM, Victoria, Weather by CustomWeather, © 2015

Note: Actual official high and low records may vary slightly from our data, if they occured in-between our weather recording intervals... More about our weather records

Advertising

Victoria weather history for previous 24 hours

 ConditionsComfort  
Time TempWeatherWind HumidityBarometerVisibility
10:00 AM
Tue, Aug 4
61 °FPassing clouds.2 mph77%29.99 "Hg30 mi
9:00 AM59 °FPassing clouds.6 mph82%29.99 "Hg30 mi
8:00 AM57 °FPassing clouds.5 mph82%29.99 "Hg30 mi
7:00 AM55 °FPassing clouds.3 mph88%29.98 "Hg30 mi
6:00 AM54 °FPassing clouds.5 mph94%29.97 "Hg30 mi
5:00 AM55 °FPassing clouds.2 mph88%29.96 "Hg30 mi
4:00 AM57 °FPassing clouds.2 mph82%29.95 "Hg30 mi
3:00 AM57 °FPassing clouds.2 mph82%29.94 "Hg30 mi
2:00 AM57 °FPassing clouds.5 mph88%29.94 "Hg30 mi
1:00 AM59 °FPassing clouds.No wind82%29.94 "Hg30 mi
12:00 AM59 °FPassing clouds.No wind82%29.92 "Hg30 mi
11:00 PM
Mon, Aug 3
63 °FPassing clouds.3 mph73%29.92 "Hg30 mi
10:00 PM64 °FPassing clouds.No wind68%29.91 "Hg30 mi
9:00 PM70 °FPassing clouds.7 mph57%29.89 "Hg30 mi
8:00 PM72 °FPassing clouds.5 mph53%29.88 "Hg30 mi
7:00 PM75 °FPartly sunny.8 mph47%29.88 "Hg30 mi
6:00 PM75 °FScattered clouds.8 mph47%29.88 "Hg30 mi
5:00 PM75 °FPassing clouds.7 mph50%29.87 "Hg30 mi
4:00 PM75 °FPassing clouds.8 mph50%29.87 "Hg30 mi
3:00 PM73 °FPartly sunny.9 mph50%29.88 "Hg30 mi
2:00 PM72 °FPartly sunny.10 mph53%29.88 "Hg30 mi
1:00 PM72 °FPartly sunny.9 mph53%29.88 "Hg30 mi
12:00 PM72 °FPartly sunny.8 mph53%29.89 "Hg30 mi
11:00 AM68 °FPartly sunny.7 mph56%29.89 "Hg30 mi
Weather by CustomWeather, © 2015

See weather overviewHow to use our weather pages